Starlink 31758

operational
NORAD ID: 59621 Int'l Des: 2024-080 Owner: SPXS Country: US Constellation: starlink
LEOCIRCULAR

About Starlink 31758

Description loading...

Live Position

Loading 3D Globe...

Upcoming Passes

Altitude History

Altitude vs Time

uPlot chart will show altitude changes over time

Two-Line Element Set

1 59621U 24080W 25349.77728094 .00002061 00000-0 84366-4 0 9994
2 59621 43.0025 147.9672 0001460 266.8923 93.1762 15.27588815 91741
Epoch: Dec 15, 2025 • Age: 22 hours

Current Status

Altitude 486.7 km
Velocity 7.62 km/s
Sub-Earth Point -19.20°S, 147.96°E
Launch Date Apr 28, 2024
Age 1.6 years
Type internet

Technical Details

Classification Payload
Mass 730.00 kg
Dry Mass 700.00 kg
Total Mass 730.00 kg
Length 0.30 m
Diameter 4.10 m
Span 29.00 m
Shape Box + pan
Manufacturer SPXS
Bus Type Starlink V2M
Phase Status In Orbit
Owner/State SPXS/US

Large Constellations

Loading constellations...